www.pogodaiklimat.ru

АРХИВ ПОГОДЫ в Атланте

Время (UTC), дата Ветер
(напр.,м/с)
 
Видим.   Явления Облачность Т
(С)
Тd
(С)
f
(%)
Тe
(С)
Тes
(С)
Комфортность

P
(гПа)

Po
(гПа)
Тmin
(С)
Tmax
(С)
R
(мм)
SD
(см)
13:52 22.06 ЮЗ  16 км    8/2 900 м
[средняя] 
+28.0  +19.0  58  +33  +35  очень
душно 
1011.3  975.4         
14:52 22.06 ЮЗ  16 км    2/2 1200 м
[средняя верхняя] 
+29.0  +20.0  58  +35  +38  очень
душно 
1011.2  975.4         
15:52 22.06 З   7
{12} 
16 км    2/2 1200 м
[средняя верхняя] 
+30.0  +21.0  59  +38  +41  очень
душно 
1011.3  975.4         
16:52 22.06 ЮЗ  7
{10} 
16 км    8/2 1350 м
[средняя верхняя] 
+31.1  +20.0  52  +38  +40  очень
душно 
1011.0  975.1  +22.8  +31.1     
17:52 22.06 ЮЗ  8
{11} 
11 км    8/2 1350 м
[средняя] 
+32.2  +19.4  47  +38  +39  очень
душно 
1010.2  974.4         
18:52 22.06 ЮЗ  5
{10} 
16 км    8/5 1410 м
[средняя верхняя] 
+31.7  +20.0  50  +38  +41  очень
душно 
1009.4  973.4         
19:52 22.06 ЮЗ  5
{11} 
16 км  слабый дождь  8/5 1170 м
[средняя] 
+28.9  +21.1  63  +36  +38  очень
душно 
1008.9  973.1         
20:41 22.06 ЮЗ  6
{11} 
16 км  гроза  10/2 900 м
[средняя] 
+28.9  +21.1  63  +36  +37  очень
душно 
  973.4         
20:52 22.06 ЮЗ  16 км  гроза  10/2 900 м
[средняя] 
+28.9  +21.1  63  +36  +38  очень
душно 
1009.3  973.4         
21:14 22.06 СЗ  10
{14} 
14 км  гроза со слабым дождем  10/8 300 м
[средняя] 
+25.0  +20.0  74  +31  +31  очень
душно 
           
21:21 22.06 СЗ  12
{15} 
2 км  гроза с сильным дождем  8/8 300 м  +24.4  +20.6  79  +30  +30  очень
душно 
  975.1         
21:33 22.06 СЗ  8
{13} 
10 км  гроза со слабым дождем, дымка  8/8 300 м  +22.2  +20.6  91  +29  +29  очень
душно 
  974.1         
21:52 22.06 СЗ  13 км  гроза, слабый дождь  10/5 600 м
[средняя] 
+22.8  +20.6  87  +30  +30  очень
душно 
1010.3  974.1         
22:00 22.06 З  14 км  слабый дождь  10/5 600 м
[средняя] 
+22.8  +20.6  87  +30  +30  очень
душно 
  974.1         
22:19 22.06 ЮЗ  16 км  гроза  10/2 600 м
[средняя] 
+22.8  +21.1  90  +30  +31  очень
душно 
  974.1         
22:52 22.06 ЮЗ  4
{9} 
13 км  слабый дождь  10/5 600 м
[средняя] 
+22.8  +20.0  84  +29  +30  очень
душно 
1011.2  975.1    +32.8  11.9   
23:52 22.06 Ю  16 км    8/0 2400 м
[средняя] 
+22.2  +20.6  91  +29  +29  очень
душно 
1010.5  974.4         
00:52 23.06 Ю  16 км    8/0 2700 м
[средняя] 
+22.0  +21.0  94  +28  +28  душно  1010.5  974.4         
01:52 23.06 ЮЗ  16 км    8/0 2700 м
[средняя верхняя] 
+22.0  +21.0  94  +28  +28  душно  1010.8  974.7         
02:52 23.06 ЮЗ  16 км    8/2 900 м
[средняя верхняя] 
+22.2  +20.6  91  +29  +29  очень
душно 
1010.5  974.4         
03:39 23.06 З  14 км  слабый дождь  10/8 210 м
[средняя] 
+22.8  +20.6  87  +30  +30  очень
душно 
  974.7         
03:52 23.06 ЮЗ  16 км    10/8 210 м
[средняя] 
+22.8  +20.6  87  +30  +30  очень
душно 
1010.5  974.7         
04:52 23.06 штиль  16 км    5/2 270 м
[средняя] 
+22.2  +20.6  91  +29  +29  очень
душно 
1010.5  974.4  +22.2  +22.8     
05:52 23.06 Ю  16 км    8/2 210 м
[средняя верхняя] 
+22.2  +20.6  91  +29  +29  очень
душно 
  974.7         
06:52 23.06 ЮЗ  16 км    8/8 210 м
[средняя верхняя] 
+22.8  +20.6  87  +30  +30  очень
душно 
  974.7         
07:09 23.06 ЮЗ  16 км  гроза  8/8 210 м
[средняя верхняя] 
+22.2  +20.6  91  +29  +29  очень
душно 
           
07:29 23.06 ЮЗ  16 км    8/5 270 м
[средняя верхняя] 
+22.8  +20.6  87  +30  +30  очень
душно 
           
07:52 23.06 ЮЗ  16 км    8/5 420 м
[средняя] 
+22.8  +21.1  90  +30  +30  очень
душно 
  975.1         
07:58 23.06 ЮЗ  16 км    8/8 480 м
[средняя] 
+22.8  +21.1  90  +30  +30  очень
душно 
  975.1         
08:10 23.06 ЮЗ  16 км    8/8 240 м  +22.8  +21.1  90  +30  +30  очень
душно 
  975.1         
08:52 23.06 ЮЗ  13 км    10/10 180 м  +23.3  +21.7  91  +32  +32  очень
душно 
1010.9  975.1         
09:52 23.06 З  10 км  дымка  10/10 0 м  +23.0  +22.0  94  +31  +31  очень
душно 
1011.8  975.7         
10:52 23.06 З  11 км    8/8 270 м
[верхняя] 
+23.9  +21.7  88  +31  +31  очень
душно 
1012.8  976.7  +22.2  +23.9     
11:13 23.06 З   11 км    8/8 270 м
[средняя] 
+24.4  +21.7  85  +31  +31  очень
душно 
  976.7         
11:46 23.06 З  16 км    8/8 0 м  +24.0  +22.0  89  +31  +31  очень
душно 
  977.0         
11:52 23.06 ЮЗ  13 км    8/8 0 м  +24.4  +21.7  85  +31  +31  очень
душно 
1013.5  977.3         
12:11 23.06 З  16 км    8/8 360 м  +24.4  +21.1  82  +31  +32  очень
душно 
  977.3         
12:52 23.06 З   16 км    8/8 480 м
[средняя] 
+26.0  +22.0  79  +34  +34  очень
душно 
1013.9  977.7         
13:52 23.06 З  5
{9} 
16 км  гроза  8/5 630 м
[средняя верхняя] 
+27.8  +22.2  72  +36  +38  очень
душно 
1014.0  977.7         
14:07 23.06 З  16 км    8/5 600 м
[средняя] 
+27.8  +22.2  72  +36  +38  очень
душно 
  977.7         
14:52 23.06 З  16 км    8/8 630 м
[верхняя] 
+27.8  +22.2  72  +36  +38  очень
душно 
1013.9  977.7         
15:09 23.06 ЮЗ  16 км    10/10 510 м  +26.7  +22.2  76  +35  +35  очень
душно 
  977.7         
15:52 23.06 З  4
{9} 
16 км    10/10 510 м  +27.2  +22.8  77  +36  +36  очень
душно 
1014.2  978.0         
16:20 23.06 З  13 км  слабый дождь  8/8 750 м
[средняя] 
+26.1  +22.8  82  +35  +38  очень
душно 
  978.0         
16:52 23.06 З  16 км    8/2 480 м
[средняя] 
+27.8  +23.3  77  +38  +43  очень
душно 
1014.1  978.0  +23.9  +28.3  4.6   
17:52 23.06 З   16 км    8/2 840 м
[средняя] 
+27.8  +21.7  69  +36  +40  очень
душно 
1014.4  978.3         
18:52 23.06 З  16 км    8/5 900 м
[средняя] 
+28.0  +20.0  62  +34  +38  очень
душно 
1013.7  977.7         
19:52 23.06 ЮЗ  16 км    8/2 1020 м
[средняя] 
+27.8  +19.4  60  +33  +37  очень
душно 
1013.7  977.7         

 

Местоположение метеостанции Hartsfield-Jackson Atlanta International Airport: широта 33.6403 долгота -84.4269 высота над уровнем моря 313 м.

В архиве по умолчанию представлена погода в Атланте за последние 1-2 суток. Обновление информации о фактической погоде в базе происходит ежечасно! Архивные данные за месяц целиком и за предыдущие месяцы Вы можете получить, выбрав интересующий диапазон дат из раскрывающегося списка и нажав кнопку "Ввод!".

Внимание! Архив погоды МЕТАР в базе сайта в настоящее время начинается c 1 января 2013 г. Нет смысла пытаться выбрать более раннюю дату.

Внимание! Время в таблицах - всемирное. Для получения местного времени необходимо прибавить поправку, которая в Атланте равна -5 ч.

Ветер - указаны скорость ветра в м/с и направление, откуда дует ветер: С - северный, СВ - северо-восточный, В - восточный, ЮВ - юго-восточный, Ю - южный, ЮЗ - юго-западный, З - западный, СЗ - северо-западный.
Видимость - горизонтальная дальность видимости в метрах или километрах. При видимости от 1 до 10 км при отсутствии осадков обычно наблюдается дымка, при ухудшении видимости до 1 км и менее - туман. В сухую погоду видимость может ухудшаться дымом, пылью или мглою.
Атмосферные явления - указаны явления, наблюдавшиеся в указанный момент времени.
Облачность - указаны через наклонную черту верхняя и нижняя облачность в баллах и высота нижней границы облаков в метрах. Внимание: облачность, как и прочие метеорологические величины в США измеряются автоматическими метеостанциями. Указанные значения в баллах носят условный характер и показывают процент времени, в течение которого, в среднем, лазерный луч высотомера отражался от облаков обратно.
T - Температура воздуха - температура, измеренная на высоте 2 м над землей.
Td - Температура точки росы - температура, при понижении до которой содержащийся в воздухе водяной пар достигнет насыщения.
f - Относительная влажность воздуха - влажноcть воздуха, измеренная на высоте 2 м над землей.
Te - Эффективная температура - температура, которую ощущает одетый по сезону человек в тени. Характеристика душности погоды. При расчете учитывается влияние влажности воздуха и скорости ветра на теплоощущения человека.
Tes - Эффективная температура на солнце - температура, которую ощущает человек, с поправкой на солнечный нагрев. Характеристика знойности погоды. Зависит от высоты солнца над горизонтом, облачности и скорости ветра. Ночью, в пасмурную погоду, а также при ветре 12 м/с и более поправка равна нулю.
P - Атмосферное давление - приведенное к уровню моря атмосферное давление.
Po - Атмосферное давление - измеренное на уровне метеостанции атмосферное давление.
Tmin - Минимальная температура - минимум температуры воздуха на высоте 2 м над землей.
Tmax - Максимальная температура - максимум температуры воздуха на высоте 2 м над землей.
R - Количество осадков - Количество выпавших осадков за 3 или 6 часов, мм.
SD - Снежный покров - Высота снежного покрова, см.